KAL378 RKSI-RKPC

Flight info

Callsign KAL378
Flight time 0h 41m
Altitude 24000
Route BOPTA3H BOPTA Z51 BEDES Y711 DOTOL DOTOL2M
Aircraft B77W/H-SDE1E2E3FGHIJ2J3J4J5M1RWXY/LB1D1

Departure

Time 2026-05-05 11:38
Airport Incheon International Airport (RKSI)

Arrival

Time 2026-05-05 12:20
Airport Jeju International Airport (RKPC)
Time Latitude Longitude Altitude Speed Heading
2026-05-05 10:41 37.46732 126.43881 37 ft 0 kts 29°
2026-05-05 11:25 37.46714 126.43869 36 ft 4 kts 29°
2026-05-05 11:25 37.46695 126.43856 36 ft 4 kts 33°
2026-05-05 11:25 37.46674 126.43834 37 ft 4 kts 50°
2026-05-05 11:26 37.46659 126.43806 36 ft 4 kts 65°
2026-05-05 11:26 37.46649 126.43775 35 ft 4 kts 72°
2026-05-05 11:26 37.46640 126.43743 35 ft 3 kts 58°
2026-05-05 11:26 37.46638 126.43739 35 ft 0 kts 55°
2026-05-05 11:30 37.46641 126.43744 35 ft 2 kts 58°
2026-05-05 11:31 37.46648 126.43780 36 ft 6 kts 89°
2026-05-05 11:31 37.46625 126.43841 37 ft 10 kts 129°
2026-05-05 11:31 37.46564 126.43907 37 ft 13 kts 145°
2026-05-05 11:31 37.46476 126.43983 37 ft 17 kts 145°
2026-05-05 11:32 37.46364 126.43975 37 ft 19 kts 227°
2026-05-05 11:32 37.46279 126.43832 37 ft 22 kts 235°
2026-05-05 11:32 37.46183 126.43661 38 ft 25 kts 234°
2026-05-05 11:32 37.46076 126.43471 38 ft 28 kts 234°
2026-05-05 11:33 37.45993 126.43324 38 ft 20 kts 234°
2026-05-05 11:33 37.45951 126.43185 38 ft 14 kts 294°
2026-05-05 11:33 37.46021 126.43098 38 ft 14 kts 323°
2026-05-05 11:33 37.46101 126.43024 38 ft 14 kts 324°
2026-05-05 11:34 37.46192 126.42943 38 ft 18 kts 326°
2026-05-05 11:34 37.46307 126.42843 38 ft 22 kts 324°
2026-05-05 11:34 37.46395 126.42765 38 ft 25 kts 324°
2026-05-05 11:34 37.46599 126.42581 38 ft 29 kts 324°
2026-05-05 11:35 37.46767 126.42430 38 ft 30 kts 324°
2026-05-05 11:35 37.46938 126.42281 38 ft 30 kts 326°
2026-05-05 11:35 37.47105 126.42130 38 ft 30 kts 324°
2026-05-05 11:35 37.47270 126.41986 38 ft 22 kts 325°
2026-05-05 11:36 37.47324 126.41939 38 ft 13 kts 325°
2026-05-05 11:36 37.47398 126.41830 38 ft 12 kts 267°
2026-05-05 11:36 37.47376 126.41763 38 ft 13 kts 239°
2026-05-05 11:36 37.47324 126.41676 38 ft 13 kts 234°
2026-05-05 11:37 37.47261 126.41609 38 ft 13 kts 184°
2026-05-05 11:37 37.47180 126.41649 38 ft 13 kts 146°
2026-05-05 11:37 37.47157 126.41670 38 ft 1 kts 144°
2026-05-05 11:37 37.46978 126.41831 38 ft 74 kts 144°
2026-05-05 11:38 37.46337 126.42399 38 ft 147 kts 144°
2026-05-05 11:38 37.45366 126.43213 351 ft 178 kts 147°
2026-05-05 11:38 37.44306 126.44079 1100 ft 178 kts 151°
2026-05-05 11:38 37.43243 126.44905 1920 ft 185 kts 154°
2026-05-05 11:39 37.42066 126.45795 2261 ft 211 kts 153°
2026-05-05 11:39 37.40714 126.46807 2547 ft 242 kts 153°
2026-05-05 11:39 37.39218 126.47924 3177 ft 256 kts 152°
2026-05-05 11:39 37.37602 126.48916 3847 ft 262 kts 165°
2026-05-05 11:40 37.35817 126.49509 4693 ft 268 kts 169°
2026-05-05 11:40 37.33988 126.50058 5600 ft 272 kts 169°
2026-05-05 11:40 37.32155 126.50640 6560 ft 273 kts 168°
2026-05-05 11:40 37.30308 126.51248 7398 ft 277 kts 167°
2026-05-05 11:41 37.28400 126.51887 7944 ft 281 kts 167°
2026-05-05 11:41 37.26591 126.52783 8504 ft 282 kts 155°
2026-05-05 11:41 37.24846 126.53980 9299 ft 288 kts 153°
2026-05-05 11:41 37.23087 126.55235 10140 ft 292 kts 152°
2026-05-05 11:42 37.21279 126.56511 10643 ft 310 kts 152°
2026-05-05 11:42 37.19299 126.57882 10861 ft 338 kts 153°
2026-05-05 11:42 37.17146 126.59349 11078 ft 366 kts 153°
2026-05-05 11:42 37.14861 126.60895 11725 ft 379 kts 152°
2026-05-05 11:43 37.12476 126.62299 12513 ft 382 kts 163°
2026-05-05 11:43 37.09857 126.62689 13018 ft 384 kts 181°
2026-05-05 11:43 37.07140 126.62552 12999 ft 392 kts 182°
2026-05-05 11:43 37.04417 126.62451 12996 ft 390 kts 181°
2026-05-05 11:44 37.01715 126.62397 12987 ft 387 kts 180°
2026-05-05 11:44 36.99023 126.62362 12988 ft 386 kts 180°
2026-05-05 11:44 36.96320 126.62362 13324 ft 392 kts 179°
2026-05-05 11:44 36.93562 126.62403 14272 ft 398 kts 179°
2026-05-05 11:45 36.90790 126.62444 15290 ft 399 kts 178°
2026-05-05 11:45 36.87992 126.62474 15995 ft 405 kts 180°
2026-05-05 11:45 36.85162 126.62370 16062 ft 409 kts 182°
2026-05-05 11:45 36.82337 126.62163 16076 ft 408 kts 183°
2026-05-05 11:46 36.79505 126.61958 16075 ft 407 kts 182°
2026-05-05 11:46 36.76676 126.61781 16078 ft 407 kts 182°
2026-05-05 11:46 36.74802 126.61672 16085 ft 407 kts 181°
2026-05-05 11:46 36.71094 126.62126 16085 ft 401 kts 165°
2026-05-05 11:47 36.68402 126.63093 16076 ft 403 kts 162°
2026-05-05 11:47 36.65718 126.64088 16089 ft 405 kts 163°
2026-05-05 11:47 36.63003 126.65069 16084 ft 406 kts 163°
2026-05-05 11:47 36.60278 126.66023 16085 ft 407 kts 164°
2026-05-05 11:48 36.54801 126.67884 16084 ft 408 kts 164°
2026-05-05 11:48 36.52064 126.68801 16080 ft 408 kts 165°
2026-05-05 11:48 36.49330 126.69715 16084 ft 407 kts 165°
2026-05-05 11:49 36.46595 126.70629 16086 ft 406 kts 164°
2026-05-05 11:49 36.43863 126.71542 16086 ft 406 kts 164°
2026-05-05 11:49 36.41139 126.72451 16086 ft 405 kts 165°
2026-05-05 11:49 36.38417 126.73361 16162 ft 407 kts 165°
2026-05-05 11:50 36.35660 126.74286 17009 ft 412 kts 165°
2026-05-05 11:50 36.32891 126.75218 17897 ft 410 kts 165°
2026-05-05 11:50 36.30115 126.76152 18093 ft 418 kts 165°
2026-05-05 11:50 36.27307 126.77099 18085 ft 417 kts 165°
2026-05-05 11:51 36.24514 126.78040 18087 ft 415 kts 165°
2026-05-05 11:51 36.21731 126.78975 18088 ft 414 kts 165°
2026-05-05 11:51 36.18915 126.79917 18093 ft 413 kts 166°
2026-05-05 11:51 36.16099 126.80608 18083 ft 413 kts 173°
2026-05-05 11:52 36.13231 126.80872 18093 ft 413 kts 179°
2026-05-05 11:52 36.10351 126.80754 18306 ft 417 kts 186°
2026-05-05 11:52 36.07441 126.80396 19078 ft 422 kts 186°
2026-05-05 11:52 36.04516 126.80055 19974 ft 424 kts 186°
2026-05-05 11:53 36.01574 126.79726 20801 ft 428 kts 185°
2026-05-05 11:53 35.98588 126.79399 21558 ft 433 kts 185°
2026-05-05 11:53 35.95569 126.79071 22434 ft 434 kts 186°
2026-05-05 11:53 35.92568 126.78746 23499 ft 433 kts 186°
2026-05-05 11:54 35.89561 126.78421 24043 ft 433 kts 186°
2026-05-05 11:54 35.86561 126.78096 24080 ft 433 kts 186°
2026-05-05 11:54 35.83568 126.77774 24110 ft 431 kts 186°
2026-05-05 11:54 35.80583 126.77452 24113 ft 430 kts 186°
2026-05-05 11:55 35.77604 126.77131 24106 ft 430 kts 186°
2026-05-05 11:55 35.74631 126.76811 24119 ft 429 kts 186°
2026-05-05 11:55 35.71653 126.76491 24113 ft 429 kts 186°
2026-05-05 11:55 35.68689 126.76172 24105 ft 429 kts 186°
2026-05-05 11:56 35.65721 126.75853 24113 ft 428 kts 186°
2026-05-05 11:56 35.62750 126.75534 24116 ft 428 kts 186°
2026-05-05 11:56 35.59777 126.75215 24118 ft 428 kts 186°
2026-05-05 11:56 35.56807 126.74896 24114 ft 428 kts 187°
2026-05-05 11:57 35.53840 126.74583 24100 ft 428 kts 185°
2026-05-05 11:57 35.50873 126.74308 24122 ft 427 kts 187°
2026-05-05 11:57 35.47952 126.73977 24117 ft 427 kts 187°
2026-05-05 11:57 35.44988 126.73644 24122 ft 428 kts 187°
2026-05-05 11:58 35.42024 126.73321 24122 ft 428 kts 187°
2026-05-05 11:58 35.39015 126.72999 24108 ft 428 kts 187°
2026-05-05 11:58 35.36089 126.72690 24122 ft 428 kts 187°
2026-05-05 11:58 35.33141 126.72378 24124 ft 427 kts 187°
2026-05-05 11:59 35.30179 126.72066 24126 ft 427 kts 187°
2026-05-05 11:59 35.27211 126.71752 24125 ft 427 kts 187°
2026-05-05 11:59 35.24249 126.71440 24123 ft 427 kts 187°
2026-05-05 11:59 35.21293 126.71128 24129 ft 426 kts 187°
2026-05-05 12:00 35.18337 126.70817 24126 ft 426 kts 188°
2026-05-05 12:00 35.15383 126.70505 24126 ft 426 kts 188°
2026-05-05 12:00 35.12433 126.70194 24125 ft 425 kts 188°
2026-05-05 12:00 35.09486 126.69882 24128 ft 425 kts 188°
2026-05-05 12:01 35.06547 126.69571 24127 ft 424 kts 188°
2026-05-05 12:01 35.03606 126.69260 24137 ft 424 kts 188°
2026-05-05 12:01 35.00660 126.68949 24129 ft 424 kts 188°
2026-05-05 12:01 34.97715 126.68637 24133 ft 424 kts 188°
2026-05-05 12:02 34.94777 126.68327 24128 ft 424 kts 188°
2026-05-05 12:02 34.91836 126.68016 24134 ft 424 kts 188°
2026-05-05 12:02 34.88896 126.67706 24133 ft 424 kts 188°
2026-05-05 12:02 34.85956 126.67396 24131 ft 424 kts 188°
2026-05-05 12:03 34.83040 126.67090 24117 ft 418 kts 188°
2026-05-05 12:03 34.80151 126.66787 24121 ft 415 kts 188°
2026-05-05 12:03 34.77280 126.66486 24132 ft 413 kts 188°
2026-05-05 12:03 34.74418 126.66185 24132 ft 413 kts 188°
2026-05-05 12:04 34.71556 126.65884 24136 ft 413 kts 188°
2026-05-05 12:04 34.68689 126.65581 24134 ft 413 kts 188°
2026-05-05 12:04 34.65825 126.65280 24131 ft 413 kts 188°
2026-05-05 12:04 34.62961 126.64980 24138 ft 413 kts 188°
2026-05-05 12:05 34.60103 126.64681 23935 ft 411 kts 188°
2026-05-05 12:05 34.57275 126.64386 23466 ft 408 kts 188°
2026-05-05 12:05 34.54449 126.64091 22879 ft 406 kts 188°
2026-05-05 12:05 34.51643 126.63797 22291 ft 404 kts 188°
2026-05-05 12:06 34.48848 126.63505 21746 ft 402 kts 188°
2026-05-05 12:06 34.46077 126.63216 21241 ft 398 kts 187°
2026-05-05 12:06 34.43329 126.62928 20731 ft 395 kts 188°
2026-05-05 12:06 34.40663 126.62459 20700 ft 380 kts 194°
2026-05-05 12:07 34.38113 126.61589 20670 ft 384 kts 202°
2026-05-05 12:07 34.35574 126.60467 20647 ft 392 kts 202°
2026-05-05 12:07 34.33000 126.59337 20655 ft 393 kts 202°
2026-05-05 12:07 34.30425 126.58216 20650 ft 392 kts 202°
2026-05-05 12:08 34.27855 126.57102 20644 ft 391 kts 202°
2026-05-05 12:08 34.25288 126.55994 20648 ft 390 kts 202°
2026-05-05 12:08 34.22736 126.54895 20644 ft 390 kts 202°
2026-05-05 12:08 34.20177 126.53794 20582 ft 392 kts 202°
2026-05-05 12:09 34.17603 126.52687 20407 ft 391 kts 202°
2026-05-05 12:09 34.15058 126.51596 20154 ft 385 kts 202°
2026-05-05 12:09 34.12547 126.50521 19909 ft 380 kts 202°
2026-05-05 12:09 34.10067 126.49458 19667 ft 377 kts 202°
2026-05-05 12:10 34.07597 126.48400 19410 ft 376 kts 202°
2026-05-05 12:10 34.05127 126.47342 19050 ft 377 kts 201°
2026-05-05 12:10 34.02652 126.46282 18708 ft 378 kts 201°
2026-05-05 12:10 34.00178 126.45223 18355 ft 378 kts 201°
2026-05-05 12:11 33.97697 126.44163 17963 ft 376 kts 201°
2026-05-05 12:11 33.96071 126.43469 17695 ft 374 kts 201°
2026-05-05 12:11 33.93628 126.42427 17298 ft 370 kts 201°
2026-05-05 12:11 33.90408 126.41055 16777 ft 364 kts 201°
2026-05-05 12:12 33.88037 126.40044 16375 ft 360 kts 201°
2026-05-05 12:12 33.85668 126.39034 15807 ft 362 kts 201°
2026-05-05 12:12 33.84097 126.38365 15511 ft 361 kts 201°
2026-05-05 12:12 33.81744 126.37364 15120 ft 357 kts 201°
2026-05-05 12:13 33.79416 126.36373 14719 ft 354 kts 201°
2026-05-05 12:13 33.77104 126.35390 14290 ft 352 kts 201°
2026-05-05 12:13 33.74804 126.34413 13833 ft 350 kts 201°
2026-05-05 12:13 33.72512 126.33439 13363 ft 348 kts 201°
2026-05-05 12:14 33.70235 126.32472 12920 ft 346 kts 200°
2026-05-05 12:14 33.67950 126.31503 12483 ft 343 kts 200°
2026-05-05 12:14 33.65732 126.30563 12055 ft 341 kts 200°
2026-05-05 12:14 33.63502 126.29618 11631 ft 339 kts 200°
2026-05-05 12:15 33.61288 126.28680 11229 ft 336 kts 200°
2026-05-05 12:15 33.59068 126.27741 10854 ft 333 kts 200°
2026-05-05 12:15 33.56896 126.26821 10551 ft 328 kts 200°
2026-05-05 12:15 33.54753 126.25915 10131 ft 327 kts 200°
2026-05-05 12:16 33.52605 126.25006 9621 ft 327 kts 200°
2026-05-05 12:16 33.50445 126.24100 8901 ft 330 kts 199°
2026-05-05 12:16 33.48162 126.23679 7904 ft 339 kts 177°
2026-05-05 12:16 33.45934 126.24414 6920 ft 331 kts 152°
2026-05-05 12:17 33.44133 126.26053 5936 ft 323 kts 135°
2026-05-05 12:17 33.42773 126.28145 4972 ft 316 kts 117°
2026-05-05 12:17 33.42260 126.30602 4475 ft 300 kts 89°
2026-05-05 12:17 33.42735 126.33041 4289 ft 308 kts 63°
2026-05-05 12:18 33.43938 126.35164 3896 ft 308 kts 52°
2026-05-05 12:18 33.45135 126.37249 2964 ft 292 kts 61°
2026-05-05 12:18 33.46125 126.39307 2384 ft 276 kts 60°
2026-05-05 12:18 33.47082 126.41164 2070 ft 242 kts 60°
2026-05-05 12:19 33.47949 126.42856 1064 ft 233 kts 62°
2026-05-05 12:19 33.48715 126.44416 712 ft 207 kts 62°
2026-05-05 12:19 33.49420 126.45814 374 ft 178 kts 59°
2026-05-05 12:19 33.50037 126.46943 112 ft 146 kts 58°
2026-05-05 12:20 33.50481 126.47789 101 ft 82 kts 58°
2026-05-05 12:20 33.50693 126.48213 99 ft 49 kts 58°
2026-05-05 12:20 33.50767 126.48496 96 ft 16 kts 88°
2026-05-05 12:20 33.50770 126.48631 97 ft 16 kts 89°
2026-05-05 12:21 33.50789 126.48763 98 ft 16 kts 66°
2026-05-05 12:21 33.50845 126.48881 97 ft 16 kts 59°
2026-05-05 12:21 33.50904 126.48996 95 ft 16 kts 58°
2026-05-05 12:21 33.50964 126.49111 97 ft 16 kts 58°
2026-05-05 12:22 33.51026 126.49231 95 ft 18 kts 58°